Fredericksburg, VA

5:53 PM EST on February 24, 2018 (GMT -0500)
Shannon

Weather History for KEZF - July, 2013

Change the Weather History Date:

Tuesday, July 30, 2013

  Actual Average (KNYG) Record (KNYG)
Temperature  
Mean Temperature 73 °F -  
Max Temperature 84 °F 82 °F 95 °F (1999)
Min Temperature 62 °F 67 °F 55 °F (2014)
Cooling Degree Days 8    
Growing Degree Days 23 (Base 50)    
Moisture  
Dew Point 60 °F    
Average Humidity 68    
Maximum Humidity 94    
Minimum Humidity 38    
Precipitation  
Precipitation 0.00 in - - ()
Sea Level Pressure  
Sea Level Pressure 30.18 in    
Wind  
Wind Speed - (North)    
Max Wind Speed -    
Max Gust Speed -    
Visibility 10 miles    
Events      
Averages and records for this station are not official NWS values.
T = Trace of Precipitation, MM = Missing Value Source: NWS Daily Summary

Daily Weather History Graph

Daily Weather History Graph

Search for Another Location

Airport or City:

Trip Planner

Search our weather history database for the weather conditions in past years. The results will help you decide how hot, cold, wet, or windy it might be!

Date:

Astronomy

Jul. 30, 2013 Rise Set
Actual Time 6:10 AM EDT 8:21 PM EDT
Civil Twilight 5:41 AM EDT 8:50 PM EDT
Nautical Twilight 5:04 AM EDT 9:26 PM EDT
Astronomical Twilight 4:25 AM EDT 10:05 PM EDT
Moon 12:26 AM EDT (7/30) 2:39 PM EDT (7/30)
Length of Visible Light 15h 09m
Length of Day
14h 10m
Last Quarter, 41% of the Moon is Illuminated
Jul 30
Last Quarter
Aug 6
New
Aug 14
First Quarter
Aug 20
Full
Aug 28
Last Quarter

Hourly Weather History & Observations

Time (EDT) Temp. Heat Index Dew Point Humidity Pressure Visibility Wind Dir Wind Speed Gust Speed Precip Events Conditions
12:15 AM 68.5 °F - 60.8 °F 76% 30.16 in 10.0 mi North - - N/A   Unknown
12:35 AM 67.1 °F - 60.4 °F 79% 30.16 in 10.0 mi North - - N/A   Unknown
12:55 AM 68.0 °F - 61.9 °F 81% 30.16 in 10.0 mi North - - N/A   Unknown
1:15 AM 65.8 °F - 60.4 °F 83% 30.16 in 10.0 mi North - - N/A   Clear
1:35 AM 65.3 °F - 60.3 °F 84% 30.17 in 10.0 mi North - - N/A   Unknown
1:55 AM 64.4 °F - 60.3 °F 86% 30.17 in 10.0 mi North - - N/A   Unknown
2:15 AM 64.0 °F - 59.9 °F 86% 30.17 in 10.0 mi North - - N/A   Unknown
2:35 AM 64.8 °F - 59.9 °F 84% 30.17 in 10.0 mi North - - N/A   Unknown
2:55 AM 64.0 °F - 59.9 °F 86% 30.17 in 10.0 mi North - - N/A   Unknown
3:15 AM 63.1 °F - 60.3 °F 90% 30.18 in 10.0 mi North - - N/A   Unknown
3:35 AM 63.1 °F - 59.5 °F 88% 30.18 in 10.0 mi North - - N/A   Unknown
3:55 AM 62.6 °F - 60.6 °F 93% 30.17 in 10.0 mi North - - N/A   Unknown
4:15 AM 62.2 °F - 59.9 °F 92% 30.17 in 10.0 mi North - - N/A   Unknown
4:35 AM 62.6 °F - 59.9 °F 91% 30.17 in 10.0 mi North - - N/A   Unknown
4:55 AM 62.6 °F - 61.0 °F 94% 30.18 in 10.0 mi North - - N/A   Unknown
5:15 AM 63.7 °F - 61.5 °F 93% 30.18 in 10.0 mi North - - N/A   Unknown
5:55 AM 63.1 °F - 61.3 °F 94% 30.19 in 10.0 mi North - - N/A   Unknown
6:15 AM 63.5 °F - 61.7 °F 94% 30.20 in 10.0 mi North - - N/A   Unknown
6:35 AM 63.7 °F - 61.7 °F 93% 30.21 in 10.0 mi North - - N/A   Unknown
6:55 AM 63.5 °F - 61.9 °F 94% 30.21 in 10.0 mi North - - N/A   Unknown
7:15 AM 64.6 °F - 62.6 °F 93% 30.22 in 10.0 mi North - - N/A   Unknown
7:35 AM 66.4 °F - 62.8 °F 88% 30.22 in 10.0 mi North - - N/A   Unknown
7:55 AM 68.0 °F - 63.0 °F 84% 30.23 in 10.0 mi North - - N/A   Unknown
8:15 AM 69.3 °F - 62.8 °F 80% 30.23 in 10.0 mi North - - N/A   Unknown
8:35 AM 71.2 °F - 62.1 °F 73% 30.23 in 10.0 mi North - - N/A   Mostly Cloudy
8:55 AM 72.0 °F - 62.2 °F 71% 30.23 in 10.0 mi North - - N/A   Mostly Cloudy
9:15 AM 73.8 °F - 59.5 °F 61% 30.23 in 10.0 mi North - - N/A   Mostly Cloudy
9:35 AM 75.2 °F - 58.8 °F 57% 30.23 in 10.0 mi North - - N/A   Scattered Clouds
9:55 AM 77.0 °F - 57.6 °F 51% 30.23 in 10.0 mi North - - N/A   Clear
10:15 AM 77.5 °F - 58.3 °F 51% 30.23 in 10.0 mi North - - N/A   Clear
10:35 AM 77.7 °F - 58.8 °F 52% 30.23 in 10.0 mi North - - N/A   Clear
10:55 AM 78.4 °F - 59.4 °F 52% 30.23 in 10.0 mi North - - N/A   Clear
11:15 AM 78.4 °F - 58.6 °F 50% 30.22 in 10.0 mi North - - N/A   Scattered Clouds
11:35 AM 81.0 °F 81.3 °F 59.0 °F 47% 30.22 in 10.0 mi North - - N/A   Scattered Clouds
11:55 AM 79.9 °F - 58.3 °F 48% 30.22 in 10.0 mi North - - N/A   Mostly Cloudy
12:15 PM 80.4 °F 80.8 °F 57.7 °F 46% 30.21 in 10.0 mi North - - N/A   Mostly Cloudy
12:55 PM 81.9 °F 81.9 °F 58.8 °F 45% 30.20 in 10.0 mi North - - N/A   Scattered Clouds
1:15 PM 81.7 °F 81.9 °F 58.8 °F 46% 30.20 in 10.0 mi North - - N/A   Scattered Clouds
1:35 PM 80.8 °F 81.0 °F 57.4 °F 45% 30.19 in 10.0 mi North - - N/A   Mostly Cloudy
2:15 PM 80.8 °F 80.9 °F 57.2 °F 44% 30.19 in 10.0 mi North - - N/A   Mostly Cloudy
2:35 PM 83.1 °F 82.9 °F 58.6 °F 43% 30.18 in 10.0 mi North - - N/A   Scattered Clouds
2:55 PM 84.2 °F 83.7 °F 57.9 °F 41% 30.17 in 10.0 mi North - - N/A   Scattered Clouds
3:15 PM 83.7 °F 83.1 °F 57.9 °F 41% 30.17 in 10.0 mi North - - N/A   Mostly Cloudy
3:35 PM 82.2 °F 82.0 °F 57.7 °F 43% 30.16 in 10.0 mi North - - N/A   Scattered Clouds
3:55 PM 81.1 °F 81.3 °F 57.9 °F 45% 30.16 in 10.0 mi North - - N/A   Mostly Cloudy
4:15 PM 81.7 °F 81.8 °F 58.6 °F 45% 30.16 in 10.0 mi North - - N/A   Mostly Cloudy
4:35 PM 82.6 °F 82.2 °F 57.6 °F 42% 30.16 in 10.0 mi North - - N/A   Mostly Cloudy
4:55 PM 84.4 °F 83.7 °F 57.9 °F 40% 30.16 in 10.0 mi North - - N/A   Mostly Cloudy
5:15 PM 84.2 °F 83.3 °F 56.7 °F 39% 30.15 in 10.0 mi North - - N/A   Mostly Cloudy
5:35 PM 84.4 °F 83.4 °F 56.3 °F 38% 30.15 in 10.0 mi North - - N/A   Mostly Cloudy
5:55 PM 83.3 °F 82.5 °F 55.8 °F 39% 30.15 in 10.0 mi North - - N/A   Clear
6:15 PM 82.8 °F 82.2 °F 57.0 °F 41% 30.14 in 10.0 mi North - - N/A   Clear
6:35 PM 82.6 °F 82.0 °F 55.9 °F 40% 30.15 in 10.0 mi North - - N/A   Clear
6:55 PM 82.0 °F 81.8 °F 57.4 °F 43% 30.15 in 10.0 mi North - - N/A   Clear
7:15 PM 80.4 °F 81.3 °F 60.8 °F 51% 30.15 in 10.0 mi North - - N/A   Clear
7:35 PM 78.1 °F - 63.3 °F 60% 30.15 in 10.0 mi North - - N/A   Clear
7:55 PM 76.8 °F - 63.1 °F 63% 30.15 in 10.0 mi North - - N/A   Clear
8:15 PM 74.3 °F - 64.4 °F 71% 30.14 in 10.0 mi North - - N/A   Unknown
8:35 PM 72.9 °F - 64.4 °F 75% 30.15 in 10.0 mi North - - N/A   Unknown
8:55 PM 72.1 °F - 64.4 °F 77% 30.15 in 10.0 mi North - - N/A   Unknown
9:15 PM 70.7 °F - 63.5 °F 78% 30.15 in 10.0 mi North - - N/A   Unknown
9:35 PM 69.8 °F - 63.1 °F 79% 30.16 in 10.0 mi North - - N/A   Unknown
9:55 PM 69.1 °F - 63.5 °F 82% 30.16 in 10.0 mi North - - N/A   Unknown
10:15 PM 68.5 °F - 63.0 °F 82% 30.16 in 10.0 mi North - - N/A   Unknown
10:35 PM 67.5 °F - 63.0 °F 85% 30.16 in 10.0 mi North - - N/A   Unknown
10:55 PM 67.5 °F - 62.8 °F 85% 30.16 in 10.0 mi North - - N/A   Unknown
11:15 PM 66.7 °F - 63.1 °F 88% 30.15 in 10.0 mi North - - N/A   Unknown
11:35 PM 66.6 °F - 64.0 °F 92% 30.15 in 10.0 mi North - - N/A   Unknown
11:55 PM 65.5 °F - 63.7 °F 94% 30.15 in 10.0 mi North - - N/A   Unknown